Time,TemperatureF,DewpointF,PressureIn,WindDirection,WindDirectionDegrees,WindSpeedMPH,WindSpeedGustMPH,Humidity,HourlyPrecipIn,Conditions,Clouds,dailyrainin,SoftwareType,DateUTC
2013-01-17 00:12:00,48.7,48.0,29.98,SW,228,0.0,1.0,96,0.03,,,0.01,weatherlink.com 1.10,2013-01-17 05:12:00,
2013-01-17 00:27:00,48.7,48.0,29.99,SW,229,0.0,1.0,96,0.04,,,0.02,weatherlink.com 1.10,2013-01-17 05:27:00,
2013-01-17 00:42:00,48.4,47.0,30.00,NNE,23,0.0,4.0,96,0.06,,,0.04,weatherlink.com 1.10,2013-01-17 05:42:00,
2013-01-17 00:57:00,48.1,47.0,29.99,NNW,330,1.0,2.0,96,0.06,,,0.05,weatherlink.com 1.10,2013-01-17 05:57:00,
2013-01-17 01:12:00,47.8,47.0,29.99,NNW,348,0.0,1.0,96,0.05,,,0.06,weatherlink.com 1.10,2013-01-17 06:12:00,
2013-01-17 01:27:00,47.6,47.0,29.99,NE,46,0.0,1.0,96,0.05,,,0.07,weatherlink.com 1.10,2013-01-17 06:27:00,
2013-01-17 01:42:00,47.4,46.0,29.99,West,273,0.0,1.0,96,0.03,,,0.07,weatherlink.com 1.10,2013-01-17 06:42:00,
2013-01-17 01:57:00,47.0,46.0,29.99,West,278,1.0,1.0,96,0.02,,,0.07,weatherlink.com 1.10,2013-01-17 06:57:00,
2013-01-17 02:12:00,46.8,46.0,29.99,SW,221,0.0,1.0,96,0.02,,,0.08,weatherlink.com 1.10,2013-01-17 07:12:00,
2013-01-17 02:27:00,46.5,46.0,29.99,NE,47,0.0,2.0,96,0.02,,,0.09,weatherlink.com 1.10,2013-01-17 07:27:00,
2013-01-17 02:42:00,46.4,45.0,29.98,NNE,12,3.0,3.0,96,0.03,,,0.10,weatherlink.com 1.10,2013-01-17 07:42:00,
2013-01-17 02:57:00,46.3,45.0,29.98,North,355,0.0,1.0,96,0.04,,,0.11,weatherlink.com 1.10,2013-01-17 07:57:00,
2013-01-17 03:12:00,46.3,45.0,29.98,ENE,67,0.0,1.0,96,0.04,,,0.12,weatherlink.com 1.10,2013-01-17 08:12:00,
2013-01-17 03:27:00,46.2,45.0,29.98,NNE,18,0.0,2.0,96,0.06,,,0.15,weatherlink.com 1.10,2013-01-17 08:27:00,
2013-01-17 03:42:00,46.2,45.0,29.97,ESE,113,0.0,1.0,96,0.06,,,0.17,weatherlink.com 1.10,2013-01-17 08:42:00,
2013-01-17 03:57:00,46.2,45.0,29.97,NNE,33,0.0,1.0,96,0.06,,,0.17,weatherlink.com 1.10,2013-01-17 08:57:00,
2013-01-17 04:12:00,46.1,45.0,29.95,ESE,121,0.0,1.0,96,0.06,,,0.18,weatherlink.com 1.10,2013-01-17 09:12:00,
2013-01-17 04:27:00,46.0,45.0,29.95,SE,126,0.0,1.0,96,0.05,,,0.20,weatherlink.com 1.10,2013-01-17 09:27:00,
2013-01-17 04:42:00,46.0,45.0,29.95,SE,125,0.0,1.0,96,0.03,,,0.20,weatherlink.com 1.10,2013-01-17 09:42:00,
2013-01-17 04:57:00,45.7,45.0,29.94,NNE,27,0.0,2.0,96,0.04,,,0.21,weatherlink.com 1.10,2013-01-17 09:57:00,
2013-01-17 05:13:00,45.7,45.0,29.94,NNE,27,0.0,0.0,96,0.04,,,0.22,weatherlink.com 1.10,2013-01-17 10:13:00,
2013-01-17 05:28:00,45.8,45.0,29.93,NNE,18,1.0,1.0,96,0.02,,,0.22,weatherlink.com 1.10,2013-01-17 10:28:00,
2013-01-17 05:43:00,45.6,45.0,29.93,ENE,68,0.0,2.0,96,0.02,,,0.22,weatherlink.com 1.10,2013-01-17 10:43:00,
2013-01-17 05:58:00,45.4,44.0,29.93,ENE,70,0.0,1.0,96,0.01,,,0.22,weatherlink.com 1.10,2013-01-17 10:58:00,
2013-01-17 06:13:00,45.2,44.0,29.92,NE,56,0.0,1.0,96,0.00,,,0.22,weatherlink.com 1.10,2013-01-17 11:13:00,
2013-01-17 06:28:00,45.1,44.0,29.92,SSE,153,0.0,1.0,96,0.01,,,0.23,weatherlink.com 1.10,2013-01-17 11:28:00,
2013-01-17 06:43:00,44.9,44.0,29.92,West,262,0.0,2.0,96,0.01,,,0.23,weatherlink.com 1.10,2013-01-17 11:43:00,
2013-01-17 06:58:00,44.3,43.0,29.92,North,4,1.0,4.0,96,0.02,,,0.24,weatherlink.com 1.10,2013-01-17 11:58:00,
2013-01-17 07:13:00,43.6,43.0,29.93,North,7,1.0,5.0,96,0.03,,,0.25,weatherlink.com 1.10,2013-01-17 12:13:00,
2013-01-17 07:28:00,43.3,42.0,29.92,North,5,2.0,3.0,96,0.02,,,0.25,weatherlink.com 1.10,2013-01-17 12:28:00,
2013-01-17 07:43:00,42.5,42.0,29.92,NNW,345,1.0,4.0,96,0.04,,,0.27,weatherlink.com 1.10,2013-01-17 12:43:00,
2013-01-17 07:58:00,42.2,41.0,29.92,WSW,240,0.0,4.0,96,0.05,,,0.29,weatherlink.com 1.10,2013-01-17 12:58:00,
2013-01-17 08:13:00,42.1,41.0,29.91,NE,50,0.0,1.0,96,0.05,,,0.30,weatherlink.com 1.10,2013-01-17 13:13:00,
2013-01-17 08:28:00,41.6,41.0,29.91,NNW,338,0.0,3.0,96,0.06,,,0.31,weatherlink.com 1.10,2013-01-17 13:28:00,
2013-01-17 08:43:00,41.4,40.0,29.92,WNW,284,0.0,3.0,96,0.09,,,0.36,weatherlink.com 1.10,2013-01-17 13:43:00,
2013-01-17 08:58:00,41.3,40.0,29.92,North,4,0.0,2.0,96,0.11,,,0.40,weatherlink.com 1.10,2013-01-17 13:58:00,
2013-01-17 09:13:00,41.5,41.0,29.92,West,271,1.0,2.0,96,0.14,,,0.44,weatherlink.com 1.10,2013-01-17 14:13:00,
2013-01-17 09:28:00,41.4,40.0,29.90,North,4,1.0,3.0,96,0.16,,,0.47,weatherlink.com 1.10,2013-01-17 14:28:00,
2013-01-17 09:43:00,41.4,40.0,29.90,WSW,249,1.0,2.0,96,0.15,,,0.51,weatherlink.com 1.10,2013-01-17 14:43:00,
2013-01-17 09:58:00,41.3,40.0,29.91,ESE,106,0.0,3.0,96,0.19,,,0.59,weatherlink.com 1.10,2013-01-17 14:58:00,
2013-01-17 10:13:00,41.6,41.0,29.90,SW,218,0.0,1.0,96,0.22,,,0.66,weatherlink.com 1.10,2013-01-17 15:13:00,
2013-01-17 10:28:00,41.6,41.0,29.90,ESE,109,0.0,1.0,96,0.24,,,0.71,weatherlink.com 1.10,2013-01-17 15:28:00,
2013-01-17 10:43:00,41.8,41.0,29.90,SW,228,0.0,1.0,96,0.24,,,0.75,weatherlink.com 1.10,2013-01-17 15:43:00,
2013-01-17 10:58:00,41.9,41.0,29.88,SE,129,1.0,2.0,96,0.19,,,0.78,weatherlink.com 1.10,2013-01-17 15:58:00,
2013-01-17 11:13:00,42.0,41.0,29.87,SSE,153,0.0,1.0,96,0.15,,,0.81,weatherlink.com 1.10,2013-01-17 16:13:00,
2013-01-17 11:28:00,42.0,41.0,29.88,SE,133,0.0,1.0,96,0.14,,,0.85,weatherlink.com 1.10,2013-01-17 16:28:00,
2013-01-17 11:43:00,42.3,41.0,29.86,SE,132,0.0,1.0,96,0.14,,,0.89,weatherlink.com 1.10,2013-01-17 16:43:00,
2013-01-17 11:58:00,42.4,41.0,29.85,SW,223,0.0,1.0,96,0.12,,,0.90,weatherlink.com 1.10,2013-01-17 16:58:00,
2013-01-17 12:13:00,42.5,42.0,29.83,NNW,348,0.0,2.0,96,0.10,,,0.91,weatherlink.com 1.10,2013-01-17 17:13:00,
2013-01-17 12:28:00,42.5,42.0,29.81,North,9,0.0,2.0,96,0.06,,,0.91,weatherlink.com 1.10,2013-01-17 17:28:00,
2013-01-17 12:43:00,42.9,42.0,29.78,ENE,65,0.0,2.0,96,0.02,,,0.91,weatherlink.com 1.10,2013-01-17 17:43:00,
2013-01-17 12:58:00,43.5,43.0,29.75,ESE,117,1.0,1.0,96,0.01,,,0.91,weatherlink.com 1.10,2013-01-17 17:58:00,
2013-01-17 13:13:00,43.6,43.0,29.73,NNE,30,2.0,3.0,96,0.00,,,0.91,weatherlink.com 1.10,2013-01-17 18:13:00,
2013-01-17 13:28:00,44.1,43.0,29.74,North,1,1.0,1.0,96,0.00,,,0.91,weatherlink.com 1.10,2013-01-17 18:28:00,
2013-01-17 13:43:00,43.9,43.0,29.73,NNW,346,0.0,4.0,96,0.00,,,0.91,weatherlink.com 1.10,2013-01-17 18:43:00,
2013-01-17 13:58:00,43.7,43.0,29.73,NNE,19,3.0,3.0,96,0.00,,,0.91,weatherlink.com 1.10,2013-01-17 18:58:00,
2013-01-17 14:13:00,43.4,42.0,29.70,NW,322,0.0,4.0,96,0.01,,,0.92,weatherlink.com 1.10,2013-01-17 19:13:00,
2013-01-17 14:28:00,43.6,43.0,29.71,NNE,32,2.0,3.0,96,0.01,,,0.92,weatherlink.com 1.10,2013-01-17 19:28:00,
2013-01-17 14:44:00,43.4,42.0,29.73,NNE,25,3.0,4.0,96,0.11,,,1.02,weatherlink.com 1.10,2013-01-17 19:44:00,
2013-01-17 14:59:00,42.4,41.0,29.75,WNW,293,1.0,5.0,95,0.19,,,1.10,weatherlink.com 1.10,2013-01-17 19:59:00,
2013-01-17 15:14:00,41.9,41.0,29.78,NE,34,6.0,7.0,95,0.22,,,1.14,weatherlink.com 1.10,2013-01-17 20:14:00,
2013-01-17 15:29:00,39.1,37.0,29.79,WNW,285,1.0,10.0,92,0.23,,,1.15,weatherlink.com 1.10,2013-01-17 20:29:00,
2013-01-17 15:44:00,37.5,36.0,29.79,ENE,77,1.0,3.0,94,0.13,,,1.16,weatherlink.com 1.10,2013-01-17 20:44:00,
2013-01-17 15:59:00,37.2,36.0,29.79,ESE,109,0.0,2.0,94,0.07,,,1.17,weatherlink.com 1.10,2013-01-17 20:59:00,
2013-01-17 16:14:00,37.6,36.0,29.81,NNE,14,0.0,2.0,95,0.03,,,1.17,weatherlink.com 1.10,2013-01-17 21:14:00,
2013-01-17 16:29:00,37.4,36.0,29.82,NE,47,0.0,3.0,95,0.02,,,1.17,weatherlink.com 1.10,2013-01-17 21:29:00,
2013-01-17 16:44:00,37.1,36.0,29.83,ENE,58,5.0,10.0,95,0.01,,,1.17,weatherlink.com 1.10,2013-01-17 21:44:00,
2013-01-17 16:59:00,36.8,36.0,29.85,NE,46,0.0,5.0,95,0.04,,,1.21,weatherlink.com 1.10,2013-01-17 21:59:00,
2013-01-17 17:14:00,36.7,35.0,29.88,ENE,74,0.0,3.0,95,0.06,,,1.23,weatherlink.com 1.10,2013-01-17 22:14:00,
2013-01-17 17:29:00,36.8,36.0,29.91,ENE,63,1.0,4.0,95,0.07,,,1.24,weatherlink.com 1.10,2013-01-17 22:29:00,
2013-01-17 17:44:00,36.3,35.0,29.94,NNW,342,2.0,5.0,95,0.08,,,1.26,weatherlink.com 1.10,2013-01-17 22:44:00,
2013-01-17 17:59:00,35.8,35.0,29.98,NNW,338,0.0,5.0,95,0.07,,,1.28,weatherlink.com 1.10,2013-01-17 22:59:00,
2013-01-17 18:14:00,35.5,34.0,30.01,NW,322,0.0,4.0,95,0.07,,,1.30,weatherlink.com 1.10,2013-01-17 23:14:00,
2013-01-17 18:29:00,35.5,34.0,30.04,West,273,1.0,4.0,95,0.09,,,1.33,weatherlink.com 1.10,2013-01-17 23:29:00,
2013-01-17 18:44:00,35.6,34.0,30.07,SW,219,1.0,2.0,95,0.07,,,1.33,weatherlink.com 1.10,2013-01-17 23:44:00,
2013-01-17 18:59:00,35.7,34.0,30.09,North,8,0.0,6.0,95,0.06,,,1.34,weatherlink.com 1.10,2013-01-17 23:59:00,
2013-01-17 19:14:00,35.4,34.0,30.11,East,86,0.0,7.0,95,0.03,,,1.34,weatherlink.com 1.10,2013-01-18 00:14:00,
2013-01-17 19:29:00,34.9,33.0,30.15,NNE,29,6.0,6.0,94,0.01,,,1.34,weatherlink.com 1.10,2013-01-18 00:29:00,
2013-01-17 19:44:00,33.9,32.0,30.17,SSE,149,1.0,9.0,94,0.01,,,1.34,weatherlink.com 1.10,2013-01-18 00:44:00,
2013-01-17 19:59:00,33.5,32.0,30.17,NNE,26,6.0,9.0,94,0.00,,,1.34,weatherlink.com 1.10,2013-01-18 00:59:00,
2013-01-17 20:14:00,33.4,32.0,30.19,ENE,64,3.0,11.0,94,0.00,,,1.34,weatherlink.com 1.10,2013-01-18 01:14:00,
2013-01-17 20:29:00,33.4,32.0,30.21,East,81,6.0,8.0,94,0.00,,,1.34,weatherlink.com 1.10,2013-01-18 01:29:00,
2013-01-17 20:44:00,33.4,32.0,30.20,NNW,333,3.0,10.0,94,0.00,,,1.34,weatherlink.com 1.10,2013-01-18 01:44:00,
2013-01-17 21:00:00,33.1,32.0,30.22,WNW,290,2.0,8.0,94,0.00,,,1.34,weatherlink.com 1.10,2013-01-18 02:00:00,
2013-01-17 21:15:00,32.9,31.0,30.23,NW,317,4.0,7.0,94,0.00,,,1.34,weatherlink.com 1.10,2013-01-18 02:15:00,
2013-01-17 21:30:00,32.6,31.0,30.25,SSE,165,4.0,4.0,94,0.00,,,1.34,weatherlink.com 1.10,2013-01-18 02:30:00,
2013-01-17 21:45:00,32.5,31.0,30.25,WNW,282,1.0,8.0,94,0.00,,,1.34,weatherlink.com 1.10,2013-01-18 02:45:00,
2013-01-17 22:00:00,32.3,31.0,30.26,ESE,119,1.0,4.0,94,0.00,,,1.34,weatherlink.com 1.10,2013-01-18 03:00:00,
2013-01-17 22:15:00,32.2,30.0,30.27,West,269,0.0,4.0,93,0.00,,,1.34,weatherlink.com 1.10,2013-01-18 03:15:00,
2013-01-17 22:30:00,32.0,30.0,30.27,ESE,105,1.0,3.0,93,0.00,,,1.34,weatherlink.com 1.10,2013-01-18 03:30:00,
2013-01-17 22:45:00,31.8,30.0,30.29,SE,141,1.0,2.0,93,0.00,,,1.34,weatherlink.com 1.10,2013-01-18 03:45:00,
2013-01-17 23:00:00,31.6,30.0,30.30,SE,129,1.0,4.0,94,0.00,,,1.34,weatherlink.com 1.10,2013-01-18 04:00:00,
2013-01-17 23:15:00,31.4,30.0,30.31,SE,146,0.0,3.0,93,0.00,,,1.34,weatherlink.com 1.10,2013-01-18 04:15:00,
2013-01-17 23:30:00,31.3,30.0,30.32,ENE,61,3.0,5.0,93,0.00,,,1.34,weatherlink.com 1.10,2013-01-18 04:30:00,
2013-01-17 23:45:00,31.2,29.0,30.32,North,11,2.0,3.0,93,0.00,,,1.34,weatherlink.com 1.10,2013-01-18 04:45:00,